Regional Weather Roundup
Issued by NWS

Home | Current Version | Previous Version | Text Only | Print | Product List | Glossary On
Versions: 1 2 3 4 5 6 7 8 9 10 11 12 13 14 15 16 17 18 19 20 21 22 23 24 25 26 27 28 29 30 31 32 33 34 35 36 37 38 39 40 41 42 43 44 45 46 47 48 49 50
000
ASMX46 KSGX 301903
RWRMX

MEXICAN WEATHER ROUNDUP
NATIONAL WEATHER SERVICE SAN DIEGO CA
1200 PM PDT SAT AUG 30 2014

BAJA CALIFORNIA

CITY           SKY/WX    TMP DP  RH WIND       PRES   REMARKS
ENSENADA NW      N/A     71  32  23 NW12      29.80F
LA PAZ         MOSUNNY   99  64  32 NE5       29.77  HX 101
LORETO         MOSUNNY   93  79  62 SE7       29.74F HX 110
MEXICALI       SUNNY    104  39  11 SE5       29.72  HX  98
S.J. DEL CABO  MOSUNNY   90  72  55 SE12      29.81S HX  96
TIJUANA        SUNNY     81  59  47 W9        29.84F

NORTHWESTERN MEXICO

CITY           SKY/WX    TMP DP  RH WIND       PRES   REMARKS
CHIHUAHUA      PTSUNNY   88  52  29 E14       30.11
CULIACAN       PTSUNNY   95  79  59 NW12      29.79  HX 112
GUAYMAS        MOSUNNY   95  82  66 S12       29.74  HX 119
HERMOSILLO     SUNNY     99  66  34 CALM      29.82  HX 102
JUAREZ           N/A    N/A N/A N/A MISG        N/A
LOS MOCHIS     MOSUNNY   93  73  52 CALM      29.78F HX 102
OBREGON        SUNNY     97  66  36 S5        29.76F HX 100

NORTHEASTERN MEXICO

CITY           SKY/WX    TMP DP  RH WIND       PRES   REMARKS
MATAMOROS      CLOUDY    82  81  94 E12       29.91  HX  95
MONCLOVA       MOSUNNY  N/A N/A N/A NE5       29.94F
MONTERREY      PTSUNNY   95  61  31 SE8       29.88F HX  95
NUEVO LAREDO   PTSUNNY   95  70  43 CALM      29.87  HX 101
PIEDRAS NEGRAS MOSUNNY   95  70  43 E6        29.92F HX 101
REYNOSA        PTSUNNY   88  73  62 SE7       29.88  HX  96
SALTILLO       PTSUNNY   84  64  51 N8        30.12F
TORREON        PTSUNNY   88  57  35 CALM      30.04F
VICTORIA       MOSUNNY   97  61  30 SE6       29.88  HX  97

WESTERN MEXICO

CITY           SKY/WX    TMP DP  RH WIND       PRES   REMARKS
AGUASCALIENTES PTSUNNY   79  50  36 NE3       30.19
COLIMA         PTSUNNY   81  72  74 W9        29.96F
DURANGO        PTSUNNY   81  46  30 N15       30.19F
GUADALAJARA    PTSUNNY   77  57  50 NE5       30.11
MANZANILLO     PTSUNNY   88  75  66 SE14      29.78F HX  97
MAZATLAN       MOSUNNY   88  75  66 S8        29.78F HX  97
PTO. VALLARTA  MOSUNNY   91  73  55 CALM      29.80S HX 100
TEPIC          PTSUNNY   86  66  51 NW7       30.04R
URUAPAN        PTSUNNY   73  66  78 S9        30.15S
ZACATECAS      PTSUNNY   77  52  41 NE8       30.25F

CENTRAL MEXICO

CITY           SKY/WX    TMP DP  RH WIND       PRES   REMARKS
CUERNAVACA     PTSUNNY   77  61  57 E6        30.08F
LEON           PTSUNNY   77  57  50 S5        30.21F
MEXICO CITY    PTSUNNY   75  50  41 NW6       30.23
MORELIA        PTSUNNY   73  55  53 NW3       30.17
POZA RICA      MOSUNNY   97  77  52 E7        29.86F HX 112
PUEBLA         CLOUDY    73  50  43 S6        30.27F
QUERETARO      PTSUNNY   77  50  38 E12       30.23S
S. LUIS POTOSI PTSUNNY   77  50  38 E14       30.19F
TAMPICO          N/A    N/A N/A N/A MISG        N/A
TOLUCA         PTSUNNY   72  48  43 E9        30.31F
VERACRUZ       PTSUNNY   88  75  66 CALM      29.86F HX  97

SOUTHERN MEXICO

CITY           SKY/WX    TMP DP  RH WIND       PRES   REMARKS
ACAPULCO       PTSUNNY   86  77  74 S6        29.84F HX  97
B. DE HUATULCO CLOUDY    75  73  94 E12       29.91
MINATITLAN     PTSUNNY   90  68  48 CALM      29.84
OAXACA         CLOUDY    73  59  60 W5        30.14F
PTO. ESCONDIDO PTSUNNY   82  75  78 S14       30.00S
TAPACHULA      PTSUNNY   88  75  66 S2        29.87F HX  97
TUX. GUTIERREZ MOSUNNY   86  70  58 E2        29.91F
VILLAHERMOSA   CLOUDY    86  75  70 CALM      29.88F HX  95
ZIHUATANEJO    CLOUDY    81  73  78 N7        29.86F

YUCATAN PENINSULA

CITY           SKY/WX    TMP DP  RH WIND       PRES   REMARKS
CAMPECHE       MOSUNNY   91  75  59 E12       29.84F HX 102
CANCUN         PTSUNNY   90  75  62 SE17      29.93F HX 100
CHETUMAL       PTSUNNY   88  79  74 E9        29.85F HX 102
C. DEL CARMEN  MOSUNNY   91  73  55 E14       29.86  HX 100
COZUMEL        PTSUNNY   88  75  66 SE22      29.91F HX  97
MERIDA         PTSUNNY   93  72  49 SE12      29.87F HX 100

$$



USA.gov is the U.S. government's official web portal to all federal, state and local government web resources and services.